This is the latest recevied weather packets stored in our database for station/object VANOK. If no packets are shown the sender has not sent any weather packets the latest 10 day(s).
| Time | Temp. | Humidity | Pressure | Rain* | Wind** | Luminosity | Snow |
|---|---|---|---|---|---|---|---|
| 1777435611 | 2.22° C | 58% | 1026.9 hPa | - | - | - | - |
| 1777434411 | 2.22° C | 58% | 1026.7 hPa | - | - | - | - |
| 1777433211 | 1.67° C | 61% | 1026.6 hPa | - | - | - | - |
| 1777432012 | 1.67° C | 61% | 1026.3 hPa | - | - | - | - |
| 1777430811 | 1.67° C | 62% | 1026.2 hPa | - | - | - | - |
| 1777429612 | 1.67° C | 61% | 1026.1 hPa | - | - | - | - |
| 1777428413 | 2.22° C | 63% | 1025.9 hPa | - | - | - | - |
| 1777427211 | 2.22° C | 64% | 1025.8 hPa | - | - | - | - |
| 1777426011 | 2.22° C | 64% | 1025.7 hPa | - | - | - | - |
| 1777424812 | 2.22° C | 60% | 1025.6 hPa | - | - | - | - |
| 1777423611 | 2.22° C | 65% | 1025.5 hPa | - | - | - | - |
| 1777422412 | 2.78° C | 63% | 1025.4 hPa | - | - | - | - |
| 1777421211 | 2.22° C | 63% | 1025.3 hPa | - | - | - | - |
| 1777420011 | 2.78° C | 62% | 1025.3 hPa | - | - | - | - |
| 1777418811 | 2.78° C | 63% | 1025.3 hPa | - | - | - | - |
| 1777417611 | 2.78° C | 66% | 1025.2 hPa | - | - | - | - |
| 1777416411 | 2.78° C | 66% | 1025.1 hPa | - | - | - | - |
| 1777415213 | 2.78° C | 66% | 1025 hPa | - | - | - | - |
| 1777414010 | 2.78° C | 67% | 1025 hPa | - | - | - | - |
| 1777412810 | 3.33° C | 63% | 1024.9 hPa | - | - | - | - |
| 1777411610 | 2.78° C | 59% | 1024.8 hPa | - | - | - | - |
| 1777410410 | 3.33° C | 59% | 1024.6 hPa | - | - | - | - |
| 1777409211 | 3.89° C | 55% | 1024.5 hPa | - | - | - | - |
| 1777408010 | 3.89° C | 56% | 1024.3 hPa | - | - | - | - |
| 1777406810 | 3.89° C | 58% | 1024.2 hPa | - | - | - | - |
* Rain since midnight (hover to see other rain measurements)
** Current wind speed in m/s (hover to see current wind gust speed)